CAPE
1276 1054 993 847 232 74 81 161 129 133 36 18 102 138 123 83 69 1 0 0 0 103 799 1196 1453 991 703 650 915 1499 1595 1057 1024 1474 1995 1546 1705 1509 1468 1548 1578 1136 1083 821 1106 1782 1608 1889 1868
1072 989 927 834 196 85 47 117 180 95 13 32 10 31 30 66 36 2 0 0 0 3 246 1089 1526 1552 752 773 1278 1577 1248 1054 1178 1384 1598 1602 1375 1443 1363 1508 1583 1078 838 850 1280 1773 1730 1767 1848
985 1315 831 980 243 47 63 65 48 26 23 13 9 6 13 52 21 0 0 0 0 0 349 1152 1784 1757 848 930 1456 1416 1146 1129 1349 1596 1407 1325 1313 1418 1380 1641 1525 1505 1315 1213 1303 1602 1547 1481 1363
1132 1315 1285 476 133 194 110 37 23 26 47 0 0 4 0 0 0 0 0 7 0 45 584 1883 1576 748 904 1219 1479 1242 1053 1215 1055 1596 1081 1328 1418 1329 1396 1487 1532 1446 1336 1653 1810 1880 1402 1380 1369
75 161 429 246 190 194 87 101 48 55 37 0 0 0 0 1 0 0 0 131 28 232 890 1376 2101 1703 1698 1677 1347 1364 1525 1466 1146 1484 1430 1107 1380 1412 1470 1343 1423 1454 1569 1452 1271 1386 1169 980 1142
73 167 32 0 155 196 159 77 62 53 57 1 0 0 0 0 21 19 86 73 241 590 1049 1276 1908 2299 1721 1472 1519 1472 1312 1076 1221 1096 1333 1208 1312 1583 1405 1502 1342 1399 1490 1577 1376 1193 1272 1234 953
177 114 216 0 78 224 271 61 129 53 43 26 0 0 0 19 24 121 281 250 385 753 1158 1292 1294 1469 1647 1740 1504 1494 1397 1118 1087 1143 1518 1290 1154 1530 1482 1603 1492 1517 1294 1134 1037 1034 1087 998 1074
379 467 279 52 0 47 223 154 145 78 112 0 0 5 104 54 54 149 158 462 187 503 710 723 705 835 1158 1474 1672 1586 1484 1075 1183 1055 1112 1335 1453 1193 1608 1663 1339 1419 1348 1202 1012 1095 1167 1057 782
62 124 420 250 18 0 86 152 187 122 0 43 7 3 21 26 45 93 111 224 174 159 557 723 665 646 779 924 1322 1847 1426 1176 1044 1464 1305 1641 953 955 1296 1678 1614 1641 1497 1207 1066 1023 919 782 693
224 233 223 185 66 9 103 143 142 149 53 1 0 0 7 68 82 141 91 176 72 69 245 353 540 504 349 855 640 786 891 973 970 1100 810 982 687 709 1308 1426 1650 1652 1433 1280 1026 926 862 803 289
372 362 50 152 107 46 109 112 197 92 38 0 0 0 19 30 93 140 67 80 63 57 66 136 186 194 80 323 721 849 848 720 773 631 493 504 1060 596 586 265 1159 991 1370 812 928 714 547 601 461
371 111 0 245 82 88 134 47 229 199 127 0 0 0 0 0 59 88 58 58 50 35 18 67 53 29 76 301 650 707 842 653 536 529 595 452 329 342 469 352 688 836 676 702 430 394 176 63 236
333 26 114 106 61 121 285 302 259 65 0 0 0 0 0 0 12 54 82 72 96 84 80 66 173 107 163 542 422 519 841 829 635 453 505 445 292 332 232 334 349 588 338 472 303 254 174 0 2
404 183 5 28 135 261 230 230 166 24 0 0 0 0 0 0 0 0 5 35 48 72 69 100 180 242 266 239 399 424 708 622 445 683 615 441 194 213 414 209 152 52 10 232 340 374 123 117 121
45 23 88 84 148 198 72 191 186 36 0 0 0 0 0 0 0 0 0 0 1 3 61 102 105 123 249 413 444 362 924 418 645 643 518 464 131 253 500 164 176 118 137 303 167 35 1 34 0
139 90 73 116 171 326 43 111 67 19 0 0 0 0 0 0 0 0 0 0 0 0 0 140 174 111 272 832 446 201 527 350 333 306 493 844 425 398 287 308 169 106 51 98 328 60 12 0 0
15 5 29 134 87 320 162 242 94 0 0 0 0 0 0 0 0 0 0 0 0 0 0 235 244 211 527 646 419 138 283 483 542 257 802 870 541 655 409 385 165 80 79 191 518 139 0 19 119
18 10 11 42 75 212 261 489 400 96 27 10 0 0 0 0 0 0 0 0 0 0 0 291 420 564 839 562 247 276 638 662 271 589 1107 1092 890 660 149 363 388 165 162 126 435 375 181 602 538
0 22 56 28 259 282 515 392 449 602 139 36 1 0 0 0 0 0 0 0 0 0 0 279 591 862 740 300 427 496 667 484 574 525 1087 1279 541 820 311 591 601 224 85 203 447 590 496 859 374
0 12 48 11 31 343 645 150 25 128 108 278 33 22 8 0 0 0 0 0 0 0 105 413 624 715 737 300 670 481 629 576 539 0 214 932 722 751 568 513 640 171 183 552 523 379 351 398 478
0 0 0 6 480 564 287 138 241 605 240 295 526 65 68 94 18 0 0 0 4 64 189 298 641 685 776 571 397 579 417 60 0 0 0 210 418 885 807 704 634 200 313 459 471 402 422 393 381
0 0 0 0 0 337 348 123 23 67 246 513 55 315 128 133 159 55 13 22 60 199 196 321 722 707 626 322 543 846 825 511 328 45 0 2 0 74 308 807 672 233 406 589 466 498 572 314 344
0 0 0 0 0 0 22 89 84 14 0 0 52 68 401 228 208 175 124 84 135 303 347 390 628 625 568 316 353 794 585 331 175 88 0 0 0 237 488 703 567 589 641 651 530 569 710 377 432
0 0 0 0 0 0 0 48 71 16 26 0 2 54 420 466 343 251 176 149 107 374 421 721 664 677 613 449 319 672 690 519 262 39 77 0 0 69 413 819 1305 862 854 710 631 534 607 696 669
0 0 0 0 0 0 0 0 56 37 16 12 9 7 639 589 521 391 265 152 70 509 412 909 774 658 798 757 708 782 956 692 432 72 0 0 0 260 823 846 1311 1382 863 889 780 736 706 786 894
0 0 0 0 0 0 0 0 0 0 23 4 0 364 482 546 615 442 273 67 184 630 491 910 814 676 701 859 1090 1213 1100 718 366 69 0 0 3 420 756 550 1322 1166 1171 1086 1033 895 790 878 891
0 0 0 0 0 0 0 0 4 2 102 782 1245 1136 995 777 496 413 339 49 499 870 594 618 808 682 717 566 594 932 1247 1370 711 289 105 241 441 829 1026 1186 1235 1147 850 1063 1206 1195 937 1090 971
0 0 0 0 0 0 1 12 0 513 701 1073 1165 1087 843 584 557 474 326 263 394 751 922 649 850 1183 1060 912 830 984 1161 1206 1581 1144 636 589 652 865 370 281 1084 992 734 725 1187 1026 1102 877 852
0 0 0 0 0 0 4 26 0 487 976 1290 1157 1034 1113 722 686 679 566 441 414 339 522 1231 769 975 1480 1638 1495 1445 1656 1760 1609 1688 1549 1269 915 638 795 590 1104 1011 984 689 1142 1219 1002 1016 866
0 0 0 0 0 0 0 2 0 565 1157 1374 1181 793 859 637 556 559 573 658 438 681 406 901 1512 1229 1246 1459 1597 2110 2255 2276 2179 2111 2042 1916 1376 988 675 831 1259 1285 1238 1164 959 1405 1407 892 879
CIN
-18 -17 -12 -2 -33 -70 -40 -23 -53 -44 -63 -144 -70 -91 -130 -120 -117 -63 0 0 0 -18 -1 -1 0 0 -5 -9 -1 0 0 -2 0 0 0 0 0 0 0 0 0 0 0 -4 -4 0 0 0 0
-45 -20 -5 -1 -48 -30 -37 -20 -42 -49 -111 -144 -139 -124 -154 -106 -144 0 0 0 0 -40 -15 0 0 0 -6 -5 0 0 0 -3 0 0 0 0 -1 0 -1 0 0 0 0 -1 0 0 0 0 0
-43 -14 -10 -17 -59 -40 -36 -37 -51 -57 -92 -88 -152 -199 -125 -111 -163 0 0 0 0 0 -21 -1 0 0 -4 -3 0 0 0 -1 0 0 0 0 -1 0 -4 0 0 0 0 0 -1 0 0 0 0
-3 -6 -5 -64 -56 -30 -71 -71 -64 -83 -65 -1 -16 -174 0 0 -19 -3 0 -113 -33 -55 -15 0 0 -4 -1 0 0 0 -1 0 0 0 0 0 0 0 -1 0 0 0 0 0 0 0 0 0 -1
-79 -175 -70 -44 -39 -46 -71 -84 -99 -93 -74 -18 0 0 -53 -27 0 0 -23 -22 -117 -37 -7 0 0 0 0 0 0 0 0 0 -2 0 0 0 0 -1 0 0 0 0 0 0 -3 -1 -2 -5 -2
-226 -185 -101 0 -35 -33 -58 -64 -69 -83 -98 -32 0 0 -5 0 -109 -86 -36 -32 -43 -16 -5 0 0 0 0 0 0 0 0 -4 0 0 -1 0 0 0 0 0 0 0 0 0 -3 -15 -7 -9 -5
-240 -223 -143 0 -32 -35 -34 -70 -58 -139 -145 -165 0 0 0 -100 -84 -65 -36 -32 -35 -21 -2 -1 -3 -1 0 0 0 0 0 -6 -4 0 0 -3 -1 0 0 -1 0 0 0 -1 -12 -26 -26 -19 -6
-271 -191 -172 -169 0 -72 -37 -40 -51 -110 -105 0 -2 -374 -106 -84 -46 -41 -59 -28 -52 -23 -28 -26 -35 -15 -7 -1 0 0 0 -8 -6 -7 -2 -5 -2 0 0 -2 -1 0 0 0 -8 -16 -21 -21 -13
-417 -297 -170 -108 -110 0 -69 -50 -52 -98 0 -153 -341 -463 -285 -131 -56 -55 -44 -45 -41 -46 -25 -32 -50 -65 -53 -38 -15 -2 -2 -5 -10 -1 -1 -1 -24 -9 -3 -3 0 0 0 -2 -9 -18 -24 -22 -11
-245 -113 -88 -161 -113 -100 -102 -75 -98 -112 -141 -16 0 -218 -192 -101 -44 -44 -65 -33 -81 -70 -89 -65 -80 -104 -98 -33 -57 -46 -32 -23 -25 -20 -26 -30 -54 -46 -21 -8 -1 0 0 -2 -11 -23 -24 -32 -84
-64 -9 -183 -145 -115 -150 -150 -115 -86 -170 -192 0 0 0 -92 -65 -31 -44 -90 -101 -115 -144 -139 -124 -145 -151 -158 -88 -80 -65 -53 -53 -47 -50 -65 -69 -50 -70 -88 -104 -19 -40 -5 -26 -22 -37 -75 -81 -85
-285 -189 -68 -147 -233 -205 -115 -96 -97 -110 -204 0 0 0 0 0 -76 -92 -103 -127 -121 -208 -229 -207 -199 -217 -171 -121 -96 -87 -61 -78 -82 -71 -68 -90 -98 -101 -83 -80 -57 -53 -67 -47 -70 -80 -133 -198 -113
-245 -341 -182 -146 -294 -145 -91 -100 -136 -232 0 0 0 0 0 0 -99 -128 -114 -147 -196 -176 -189 -173 -160 -155 -148 -106 -124 -110 -85 -75 -76 -78 -84 -90 -114 -119 -122 -91 -96 -76 -105 -80 -103 -91 -114 -55 -183
-206 -156 -94 -140 -217 -204 -175 -265 -262 -343 0 0 0 0 0 0 0 0 -68 -224 -226 -207 -172 -142 -132 -145 -164 -192 -133 -127 -110 -107 -92 -86 -73 -97 -139 -174 -104 -121 -133 -144 -230 -120 -97 -107 -142 -113 -110
-246 -249 -364 -249 -192 -195 -395 -242 -379 -526 0 0 0 0 0 0 0 0 0 0 -82 -166 -193 -172 -184 -194 -169 -159 -126 -118 -93 -116 -86 -98 -81 -109 -193 -159 -138 -169 -129 -137 -141 -106 -163 -184 -26 -154 0
-226 -208 -290 -242 -315 -184 -328 -199 -409 -553 0 0 0 0 0 0 0 0 0 0 0 0 0 -157 -100 -220 -177 -132 -137 -151 -109 -103 -138 -138 -97 -93 -130 -141 -163 -138 -155 -163 -175 -153 -135 -175 -168 0 0
-240 -126 -290 -271 -388 -196 -205 -219 -363 0 0 0 0 0 0 0 0 0 0 0 0 0 0 -189 -152 -213 -151 -154 -157 -213 -163 -101 -108 -153 -92 -88 -137 -135 -159 -133 -153 -167 -137 -110 -106 -138 0 -116 -121
-164 -230 -307 -215 -210 -243 -257 -211 -225 -372 -508 -451 0 0 0 0 0 0 0 0 0 0 0 -199 -160 -143 -152 -161 -223 -199 -123 -97 -120 -115 -105 -86 -113 -129 -179 -136 -94 -122 -124 -136 -106 -87 -144 -75 -75
-1 -236 -185 -182 -152 -170 -188 -217 -237 -302 -504 -602 -622 0 0 0 0 0 0 0 0 0 0 -200 -158 -177 -160 -207 -179 -163 -110 -100 -130 -136 -86 -93 -140 -126 -166 -114 -108 -118 -158 -131 -114 -77 -82 -74 -142
0 -220 -115 -170 -193 -215 -259 -328 -308 -425 -568 -489 -558 -601 -344 0 0 0 0 0 0 0 -263 -224 -182 -226 -198 -205 -183 -172 -139 -150 -181 0 -209 -131 -139 -132 -149 -125 -109 -141 -137 -100 -108 -99 -91 -111 -140
0 0 0 -92 -328 -339 -333 -346 -437 -477 -607 -554 -448 -514 -500 -520 -561 0 0 0 -334 -434 -314 -273 -208 -222 -199 -228 -267 -228 -205 -131 0 0 0 -209 -171 -131 -124 -129 -102 -148 -130 -106 -118 -119 -101 -70 -123
0 0 0 0 0 -153 -181 -115 -467 -515 -490 -488 -585 -383 -442 -493 -474 -497 -610 -556 -426 -377 -313 -305 -251 -245 -276 -336 -247 -173 -139 -142 -166 -211 0 -173 0 -255 -228 -125 -100 -163 -136 -101 -127 -122 -117 -121 -79
0 0 0 0 0 0 -124 -144 -273 -462 0 0 -498 -417 -308 -421 -448 -448 -420 -439 -404 -353 -309 -316 -285 -290 -298 -323 -260 -197 -189 -204 -249 -270 -22 0 0 -154 -189 -140 -106 -110 -122 -116 -130 -121 -113 -140 -98
0 0 0 0 0 0 0 -182 -133 -334 -369 0 -114 -383 -229 -293 -367 -359 -366 -371 -406 -385 -328 -297 -316 -301 -305 -288 -281 -208 -161 -201 -228 -301 -253 0 0 -272 -198 -164 -66 -86 -100 -112 -127 -148 -122 -109 -110
0 0 0 0 0 0 0 0 -27 -211 -277 -278 -241 -229 -147 -183 -238 -296 -344 -399 -506 -396 -360 -289 -315 -295 -270 -257 -225 -198 -183 -192 -192 -287 0 0 0 -244 -160 -139 -68 -65 -97 -100 -109 -130 -123 -109 -93
0 0 0 0 0 0 0 0 0 0 -264 -41 0 -146 -268 -187 -169 -275 -355 -388 -482 -363 -357 -284 -322 -300 -262 -251 -216 -191 -182 -208 -258 -339 -27 0 -168 -180 -131 -171 -72 -86 -77 -75 -95 -105 -117 -95 -96
0 0 0 0 0 0 0 0 -10 -33 -170 -115 -199 -312 -383 -405 -251 -294 -305 -373 -449 -356 -364 -354 -318 -338 -304 -303 -278 -212 -178 -178 -248 -277 -343 -272 -204 -138 -125 -128 -97 -82 -101 -91 -85 -87 -94 -80 -97
0 0 0 0 0 0 -57 -82 0 -74 -85 -103 -290 -351 -419 -669 -519 -615 -671 -754 -627 -403 -325 -372 -372 -321 -287 -267 -275 -209 -188 -173 -152 -198 -234 -227 -225 -160 -195 -240 -136 -139 -136 -137 -83 -100 -100 -102 -105
0 0 0 0 0 0 -25 -64 0 -106 -80 -103 -261 -283 -327 -563 -618 -600 -657 -586 -476 -527 -451 -331 -387 -341 -253 -226 -221 -184 -159 -160 -162 -131 -159 -166 -205 -245 -188 -218 -161 -163 -165 -188 -105 -96 -99 -95 -123
0 0 0 0 0 0 0 -19 0 -189 -135 -80 -188 -321 -405 -500 -533 -570 -555 -473 -186 -317 -315 -325 -325 -303 -304 -240 -223 -191 -186 -156 -155 -124 -141 -131 -184 -239 -252 -207 -157 -167 -148 -142 -141 -86 -66 -139 -143
Wind_Speed
10 7 2 0 2 1 2 3 5 8 2 1 2 7 8 6 3 3 9 8 12 11 11 12 16 16 16 15 14 14 15 14 11 12 14 14 13 11 11 11 12 12 13 15 13 13 14 14 14
8 7 0 2 2 1 3 3 7 4 11 7 8 6 7 5 5 9 8 8 13 11 7 11 16 15 16 15 14 14 14 13 11 11 12 12 12 11 11 12 13 14 16 16 14 12 14 13 13
8 3 1 3 2 3 3 4 9 14 10 5 5 8 3 4 9 8 8 10 14 11 8 12 17 16 16 15 14 13 13 12 10 10 12 12 10 10 10 13 12 14 14 14 12 12 13 13 12
1 1 3 3 4 3 5 10 13 13 7 8 9 9 4 1 2 5 15 8 14 12 9 16 18 17 16 16 15 13 12 12 10 8 10 10 11 10 12 11 13 12 14 13 11 12 12 12 11
3 2 3 2 2 3 7 13 14 11 5 11 5 4 3 3 5 14 10 8 13 11 10 13 17 17 15 15 14 12 11 11 9 7 9 8 9 11 10 10 11 12 11 12 10 10 11 11 11
2 0 0 2 4 8 10 13 13 8 10 10 8 8 3 2 3 6 6 11 14 12 12 11 17 17 16 14 13 12 11 9 7 7 8 7 7 10 9 10 11 12 11 11 9 7 8 8 9
4 2 2 3 4 4 9 12 14 12 12 7 17 7 4 5 5 6 5 8 10 12 11 10 9 13 17 15 14 12 11 10 8 6 7 6 5 7 8 9 11 11 11 9 9 6 5 5 8
3 2 3 5 3 3 8 13 14 17 10 17 14 9 10 14 8 8 5 7 7 9 10 8 6 6 6 8 15 13 12 11 10 8 6 7 6 6 8 6 8 10 10 9 7 6 3 1 4
2 4 3 4 4 1 8 13 11 10 17 7 7 7 17 15 12 9 5 4 4 4 9 9 8 7 6 6 8 12 13 11 10 8 8 5 3 2 5 6 8 11 10 9 7 5 3 1 3
6 5 10 24 3 5 9 13 12 8 14 5 7 15 20 15 13 10 8 9 3 6 10 9 10 9 7 7 5 5 5 4 4 4 4 3 4 3 5 4 8 9 9 9 7 4 1 3 5
6 8 20 21 12 8 10 9 6 16 5 7 20 24 20 17 13 12 11 12 11 11 10 12 9 9 8 6 4 2 2 2 3 5 5 5 3 3 3 1 1 1 7 2 4 3 3 4 4
12 11 6 10 15 14 6 8 7 4 5 17 24 24 20 18 16 15 14 15 11 15 13 11 8 6 7 4 4 4 3 3 3 4 6 4 2 2 3 2 3 3 2 3 3 2 3 6 2
7 7 13 13 20 18 4 9 8 12 19 20 20 18 18 16 17 13 15 12 9 15 14 12 8 11 8 6 4 4 4 4 4 4 5 4 4 4 4 4 1 3 2 2 3 3 5 6 3
13 14 8 8 11 3 5 11 7 11 18 20 19 16 14 15 16 11 10 10 9 9 15 15 9 11 11 7 6 6 5 4 5 5 5 5 4 5 4 3 3 4 4 3 4 6 5 5 7
11 4 5 8 2 2 6 4 9 18 18 18 19 14 14 13 13 13 13 9 10 7 12 13 10 8 9 9 6 5 4 5 5 5 6 7 6 7 4 5 4 4 4 4 3 1 4 3 4
4 1 2 7 7 4 8 8 11 15 17 15 19 17 14 13 13 8 12 10 7 8 13 12 11 8 7 7 6 4 4 4 4 4 4 6 7 6 5 6 5 4 4 3 4 4 4 4 5
3 4 8 6 14 5 8 4 13 12 13 15 17 19 17 14 14 14 16 14 11 11 8 12 12 12 10 7 5 5 6 4 4 4 5 7 7 9 7 5 4 5 4 4 3 3 2 4 4
5 4 7 6 2 12 17 14 17 18 19 19 18 19 20 21 23 20 19 18 15 12 11 12 12 13 12 8 5 3 3 4 4 4 5 7 5 6 4 4 5 5 4 4 2 4 4 3 3
8 6 6 6 11 14 15 19 18 22 19 20 18 18 20 22 25 23 21 20 20 16 15 16 16 14 10 5 4 3 4 2 2 2 4 6 6 6 5 4 5 5 5 4 5 3 4 3 2
9 4 7 9 9 9 15 7 11 11 9 17 21 22 23 21 20 22 21 21 21 21 17 18 18 16 12 9 6 4 4 2 2 3 3 5 5 5 5 5 4 5 3 4 3 4 2 1 3
5 3 3 3 14 11 15 2 7 12 6 11 15 21 21 24 24 23 22 21 18 20 20 19 19 18 15 12 4 4 5 4 2 1 1 2 2 4 6 6 5 5 4 4 4 4 5 2 0
5 5 6 3 6 7 14 4 7 7 14 16 17 22 22 23 23 22 23 21 19 18 18 18 18 18 13 12 10 7 6 5 4 4 4 5 6 4 3 5 6 6 4 5 5 4 3 3 3
10 5 5 3 1 6 5 6 8 5 12 16 21 17 24 26 25 24 24 24 19 17 17 17 17 16 14 14 12 9 5 4 3 2 4 4 4 6 4 5 6 6 4 5 6 5 5 3 3
4 7 6 6 5 3 5 7 6 8 17 9 7 12 21 24 24 24 20 19 16 16 16 15 17 16 14 14 12 12 11 7 4 2 4 3 3 3 6 5 7 6 6 7 6 6 5 5 4
10 8 6 7 7 7 3 5 10 9 7 7 8 4 15 21 20 20 21 19 16 19 18 16 17 15 14 14 12 12 9 9 9 8 5 6 5 5 9 8 7 5 6 6 5 5 6 5 4
2 7 7 2 2 5 3 2 5 5 4 4 3 2 11 11 17 19 21 21 18 18 18 18 17 15 15 14 13 11 10 8 7 8 6 7 6 5 6 6 7 7 7 6 6 4 4 5 5
3 3 5 7 4 6 4 6 6 9 3 7 13 16 10 7 7 10 15 13 13 16 19 19 18 16 16 17 13 11 11 9 10 9 8 8 6 6 7 10 10 8 7 7 6 5 6 5 5
5 3 6 6 2 3 5 1 4 5 5 6 13 11 9 13 11 14 14 9 6 11 16 17 20 20 19 18 15 13 13 13 11 10 12 9 8 10 6 7 9 8 8 7 7 6 5 6 4
6 5 6 6 4 5 1 5 5 7 7 9 9 6 8 13 13 17 14 11 8 6 3 14 17 19 16 16 16 15 13 12 11 12 10 11 7 10 11 9 10 10 11 10 9 7 7 7 7
4 4 5 7 6 0 5 5 4 2 7 8 10 8 5 12 14 17 17 21 12 5 6 12 16 16 18 18 14 15 13 12 12 13 12 11 11 9 13 11 11 10 9 9 11 11 10 10 10
Wind_Direction
160 169 182 332 301 90 262 200 119 190 99 64 68 106 109 25 33 144 140 159 139 142 143 146 137 134 127 124 120 114 106 100 97 93 92 91 90 89 93 106 104 106 112 124 118 115 115 115 114
165 159 270 272 233 145 276 137 146 129 125 131 72 73 50 72 68 111 134 166 144 143 137 146 139 137 134 131 127 119 113 107 104 97 94 90 89 94 97 115 107 107 110 120 117 120 118 117 115
161 121 141 217 235 189 160 105 117 132 153 99 106 46 40 64 94 145 153 150 142 142 140 149 142 141 139 137 130 125 119 113 105 101 96 96 93 95 103 114 112 118 116 115 122 115 119 117 119
104 137 255 239 224 116 148 154 148 153 121 66 104 74 76 353 271 167 149 142 141 142 144 146 146 146 144 141 137 134 130 123 112 102 101 100 102 105 106 119 121 124 126 122 121 119 122 120 118
25 23 309 275 278 106 154 157 159 160 104 129 120 116 65 27 330 138 143 161 136 141 145 145 148 148 146 142 144 143 138 128 128 124 111 101 103 118 122 128 124 129 134 130 129 127 127 125 123
60 174 260 297 165 158 176 162 156 131 125 129 92 115 97 359 76 136 128 139 139 142 141 153 154 154 152 153 152 151 146 139 140 135 125 120 112 125 132 137 135 137 137 136 138 139 136 133 124
104 46 271 276 174 152 187 167 162 154 146 152 138 104 118 167 146 93 90 111 136 143 146 148 151 158 157 162 163 162 159 154 155 155 138 138 136 125 139 148 145 149 141 148 149 154 158 135 108
104 122 314 254 119 216 183 164 160 159 167 122 137 159 165 171 124 94 81 96 107 147 147 151 145 150 155 174 169 172 169 166 169 169 171 158 163 152 140 145 148 150 149 155 158 165 169 108 97
191 29 280 263 152 177 129 147 160 130 134 159 174 145 151 136 117 103 123 100 84 156 161 163 159 156 161 177 182 179 178 179 180 188 187 180 155 167 161 171 167 162 160 167 170 177 199 247 2
59 7 339 325 176 162 143 140 136 126 158 63 93 111 134 134 137 145 149 148 178 208 172 179 171 167 171 186 190 173 185 171 165 175 197 200 184 202 176 189 185 169 183 182 180 191 220 355 62
63 341 323 316 333 164 165 156 127 126 169 185 147 144 146 143 157 155 160 172 203 189 178 180 177 177 178 190 170 167 169 172 178 189 193 210 209 203 135 141 198 181 188 202 179 174 55 61 55
143 202 274 305 309 300 189 165 129 158 143 140 148 146 147 154 171 171 183 191 198 181 183 178 180 174 185 153 171 166 170 183 193 193 202 195 191 182 137 170 192 178 174 196 192 154 114 82 39
173 214 148 290 303 348 57 85 102 102 116 128 138 146 153 162 176 185 182 194 210 180 182 177 172 180 178 162 160 181 189 190 192 201 205 186 182 166 144 152 181 200 141 197 196 140 142 144 242
186 195 104 255 288 295 88 128 90 130 128 135 149 158 165 177 180 171 201 213 201 162 173 176 184 173 163 164 174 192 197 195 183 202 193 177 172 146 142 218 186 207 185 215 199 178 154 177 205
140 161 234 194 210 263 33 288 131 140 141 147 153 166 172 187 193 197 203 209 183 172 167 181 176 167 168 166 180 180 195 177 197 202 179 167 172 170 175 170 199 201 173 209 174 254 134 167 188
200 238 325 194 167 177 69 17 119 143 150 164 158 171 186 194 205 203 218 218 212 183 183 177 185 171 180 169 180 172 180 180 200 177 164 169 169 167 173 169 192 178 195 220 180 186 180 189 217
332 202 240 288 183 113 96 64 152 167 168 175 174 176 185 197 207 211 214 220 215 202 186 171 177 174 182 178 179 181 168 194 202 186 170 187 169 167 170 174 177 171 198 216 199 188 162 199 208
164 242 264 270 118 136 95 123 126 191 194 189 187 187 186 191 204 210 214 212 218 212 196 180 177 182 180 177 161 172 168 184 203 213 181 171 170 171 181 176 167 169 189 199 181 186 207 197 180
183 193 229 255 117 127 136 148 164 195 191 189 195 198 195 197 202 204 205 207 217 213 200 186 175 175 169 160 166 167 191 180 150 80 228 182 179 172 183 178 163 172 198 195 188 166 204 220 131
170 120 251 297 150 87 127 156 198 233 188 200 195 200 203 206 203 210 209 201 209 215 193 179 179 170 178 176 179 157 146 140 129 159 206 190 206 181 168 185 179 181 193 203 187 164 164 243 162
323 187 229 162 68 74 118 204 237 258 298 237 233 212 206 201 205 206 211 207 200 192 182 177 177 177 180 181 139 84 80 68 79 225 246 275 168 174 183 176 182 185 194 194 205 182 156 193 318
326 200 240 141 111 168 219 237 246 243 244 232 246 215 207 209 210 207 204 206 196 184 179 169 172 176 180 173 166 162 168 162 196 183 182 201 185 222 142 187 189 185 187 202 212 201 158 144 205
236 294 279 246 139 115 221 116 276 145 248 246 238 215 209 207 207 207 203 204 194 178 176 171 168 172 175 180 177 179 163 162 166 176 169 215 232 219 194 185 193 192 184 208 212 206 173 175 168
297 334 3 47 109 19 221 125 262 188 218 216 200 224 207 205 207 206 201 192 185 173 169 167 166 176 177 181 182 178 184 155 160 157 221 214 232 249 247 204 189 192 190 196 211 217 201 192 201
54 43 350 1 16 217 101 61 223 219 223 221 246 252 211 202 203 199 190 184 171 168 166 165 168 176 179 183 186 182 175 171 183 186 181 202 219 222 229 191 196 187 193 198 195 204 205 196 190
68 132 145 285 299 272 22 219 269 219 208 277 217 72 46 211 199 193 183 177 169 162 165 166 172 174 178 182 190 182 172 180 185 187 189 205 216 223 200 202 192 186 185 198 193 187 194 197 206
309 1 186 109 332 54 289 323 348 24 83 55 62 45 37 348 183 197 179 146 140 163 171 171 175 180 182 188 188 191 179 173 187 189 198 206 187 203 203 196 204 186 187 189 180 187 193 194 208
130 230 29 12 51 23 306 326 243 76 62 51 66 61 36 36 47 68 79 97 106 164 178 178 177 179 188 190 190 194 196 198 188 184 204 210 182 199 195 197 212 195 182 185 188 194 194 192 213
355 354 45 107 107 154 237 280 242 183 140 94 99 93 87 74 74 86 84 56 356 32 181 194 189 186 187 191 196 196 200 199 194 198 199 205 196 202 215 200 204 202 192 187 193 198 195 202 207
132 8 110 112 295 159 156 268 287 233 147 132 117 135 126 125 130 133 135 136 167 150 260 218 203 197 193 194 195 202 196 196 193 201 206 197 195 202 202 201 204 200 202 200 200 206 207 207 213